Location: Willingham
(52.3167°N, 0.0667°E)
Time: 23:36:35
(UTC+00:00)

Cosmos 2298 Rocket - Pass Details

Date: 19 May 2025
Orbit: 773 x 782 km, 74.0° (Epoch: 18 June)

Event Time Altitude Azimuth Distance (km) Brightness Sun altitude
Rises 21:15:43 0° 335° (NNW) 3,282 9.2 -9.7°
Reaches altitude 10° 21:18:08 10° 338° (NNW) 2,350 7.9 -10.0°
Maximum altitude 21:23:28 69° 62° (ENE) 838 4.2 -10.4°
Enters shadow 21:27:58 15° 145° (SE) 2,034 5.5 -10.8°
